Regional Weather Roundup
Issued by NWS

Home | Current Version | Previous Version | Graphics & Text | Print | Product List | Glossary On
Versions: 1 2 3 4 5 6 7 8 9 10 11 12 13 14 15 16 17 18 19 20 21 22 23 24 25 26 27 28 29 30 31 32 33 34 35 36 37 38 39 40 41 42 43 44 45 46 47 48 49 50
000
ASUS43 KBIS 281410
RWRND

NORTH DAKOTA REGIONAL WEATHER ROUNDUP
NATIONAL WEATHER SERVICE BISMARCK ND
900 AM CDT SAT MAY 28 2016

NOTE: "FAIR" INDICATES FEW OR NO CLOUDS BELOW 12,000 FEET WITH NO
SIGNIFICANT WEATHER AND/OR OBSTRUCTIONS TO VISIBILITY.


NDZ001>003-009>011-017-281500-
NORTHWEST NORTH DAKOTA

CITY           SKY/WX    TMP DP  RH WIND       PRES   REMARKS
WILLISTON      CLOUDY    57  52  83 E9        29.89S
MINOT          CLOUDY    58  53  84 N8        29.89S
MINOT AFB      CLOUDY    54  52  91 NE7       29.89S
$$

NDZ018>021-031>035-040>046-281500-
SOUTHWEST NORTH DAKOTA

CITY           SKY/WX    TMP DP  RH WIND       PRES   REMARKS
BISMARCK       CLOUDY    59  55  87 NE8       29.88R
DICKINSON      MOSUNNY   52  49  89 E5        29.87R
GARRISON         N/A     58  54  86 E7        29.88S
HETTINGER ARPT PTSUNNY   61  51  70 W5        29.89R
$$

NDZ004>008-012>016-024-026-027-054-281500-
NORTHEAST NORTH DAKOTA

CITY           SKY/WX    TMP DP  RH WIND       PRES   REMARKS
GRAND FORKS    MOSUNNY   68  54  60 CALM      29.82F
GRND FRKS AFB  SUNNY     67  56  70 VRB2      29.83F
DEVILS LAKE    CLOUDY    57  55  94 N7        29.88S
$$

NDZ022-023-025-028>030-036>039-047>053-281500-
SOUTHEAST NORTH DAKOTA

CITY           SKY/WX    TMP DP  RH WIND       PRES   REMARKS
FARGO          MOSUNNY   65  57  75 NE6       29.81R
JAMESTOWN      CLOUDY    62  58  86 N12       29.84R
$$




USA.gov is the U.S. government's official web portal to all federal, state and local government web resources and services.